Dewpoint
34 27 24 23 22 19 16 12 10 10 20 18 16 15 15 16 15 16 16 16 15 16 25 29 29 33 34 33 32 32 33 34 35 35 36 40 41 41 42 45 44 46 48 50
27 20 24 23 21 21 18 14 15 18 18 18 18 17 17 13 15 18 19 26 18 17 26 27 29 31 31 32 31 32 32 33 33 34 37 39 40 40 42 45 46 47 48 48
25 26 25 23 22 20 18 16 17 17 22 21 18 16 7 14 16 19 20 19 18 21 23 26 27 29 31 32 32 31 32 32 31 35 38 40 41 42 44 45 44 46 47 48
24 27 24 23 20 18 17 22 21 22 22 21 17 14 14 12 13 16 19 20 18 21 23 24 27 28 31 32 32 31 32 31 31 35 38 38 38 38 41 41 43 44 47 48
26 27 25 25 23 21 24 26 23 23 23 23 20 14 11 3 5 14 11 18 19 23 24 25 27 29 32 33 33 32 31 30 32 37 38 38 38 39 41 42 42 45 47 47
29 30 28 26 26 26 27 26 24 24 24 23 21 11 14 0 3 6 8 15 17 20 23 24 30 31 32 33 33 32 30 29 33 37 38 38 37 38 40 41 41 44 45 46
26 26 29 29 27 28 27 25 27 23 23 21 16 13 14 9 3 4 5 9 15 21 23 25 29 30 31 32 31 30 28 28 35 37 38 38 38 38 38 39 41 42 44 45
24 22 26 27 27 26 25 26 27 16 25 22 11 13 18 13 8 8 7 10 15 18 21 24 25 29 31 31 30 28 26 31 36 38 38 38 38 38 39 38 39 41 42 44
29 26 28 28 28 27 23 19 23 22 18 22 21 16 14 13 12 11 9 11 13 17 20 25 25 28 30 30 30 27 27 34 37 37 37 38 38 38 39 39 40 41 41 42
31 23 27 27 29 26 24 21 15 25 15 19 25 22 20 13 11 10 11 13 16 16 18 23 26 28 29 29 28 26 29 36 37 37 37 38 39 40 39 40 40 41 41 43
33 32 25 25 25 24 21 22 19 23 24 23 21 25 25 17 11 10 12 15 16 15 19 23 25 28 29 29 27 26 32 37 37 37 38 38 38 38 39 40 40 42 42 43
32 31 23 24 25 25 23 21 20 25 23 22 26 22 21 17 12 19 16 15 13 15 19 22 26 28 29 28 26 26 34 37 37 37 37 38 38 39 39 40 41 42 42 43
30 27 20 23 26 24 22 21 21 25 29 19 21 25 27 21 21 21 18 17 17 20 26 24 25 27 27 27 26 27 34 37 36 38 37 38 39 38 39 40 41 42 42 43
30 32 26 14 25 25 21 24 20 24 24 26 28 31 29 27 26 27 27 26 29 26 34 30 26 27 27 27 25 28 35 37 36 37 38 38 38 39 40 40 41 42 42 43
26 25 24 26 25 23 23 24 22 20 22 23 25 27 27 31 33 33 32 35 35 34 32 32 30 30 30 28 25 30 36 36 37 37 37 38 38 39 39 40 40 41 42 42
24 23 26 22 24 24 22 25 24 21 23 23 26 27 32 32 35 33 31 30 31 32 33 35 33 32 31 29 27 32 33 35 37 37 37 37 39 39 39 39 39 40 40 40
24 25 24 22 24 25 20 22 25 23 22 21 21 23 30 28 29 30 31 33 33 33 34 36 36 33 32 30 28 33 35 36 36 37 36 37 37 37 38 38 39 39 40 40
27 29 31 25 25 20 24 28 26 23 23 23 25 28 32 30 31 31 32 33 33 33 32 32 35 34 32 31 28 32 36 35 36 37 37 37 37 36 36 36 38 38 38 38
32 31 30 27 24 23 24 25 25 23 22 25 23 22 27 30 29 28 31 32 32 32 27 26 33 32 31 30 30 34 34 34 34 36 35 36 36 35 35 35 36 36 37 36
27 34 31 30 25 20 25 27 28 26 23 27 26 25 24 28 25 26 27 29 25 25 27 31 30 31 30 28 32 34 34 33 33 35 34 34 35 35 35 34 34 34 34 34
27 28 27 28 28 26 31 30 28 23 24 30 28 28 29 28 28 26 27 25 27 29 31 30 29 29 29 28 32 33 33 34 33 33 35 34 35 35 35 34 34 34 34 34
28 28 27 30 27 23 31 28 25 28 32 30 32 31 32 30 26 26 25 25 27 29 30 29 29 28 27 28 31 32 33 33 32 32 30 32 32 33 34 34 32 33 34 33
28 29 28 29 27 32 31 31 31 33 32 30 33 34 34 29 24 24 24 25 27 28 29 29 29 27 25 25 28 30 29 31 30 30 28 25 27 29 32 32 32 32 32 33
28 30 30 30 30 31 31 32 32 33 32 29 32 34 34 27 25 23 24 26 28 28 29 28 28 26 24 24 26 25 29 30 31 30 27 27 28 29 29 31 32 31 29 28
29 29 28 29 30 30 32 33 34 34 33 27 30 33 33 27 27 23 27 27 28 28 27 28 28 27 25 25 25 25 27 30 30 29 26 26 27 28 29 29 30 30 27 33
31 29 28 27 31 31 30 34 34 34 33 31 29 28 31 29 29 28 28 28 29 29 27 27 26 25 25 25 25 25 28 30 30 28 28 27 27 26 27 29 27 31 31 32
Lifted_Index
6 5 4 5 5 5 5 4 4 5 6 6 5 5 6 6 7 7 7 7 8 10 11 11 12 13 13 14 15 16 16 17 17 16 15 13 12 11 10 9 8 7 6 5
5 5 5 5 5 5 4 4 4 5 5 5 5 5 5 6 6 7 7 7 8 9 10 11 12 12 13 14 15 16 16 17 17 17 15 13 12 11 10 9 8 7 6 5
5 5 6 5 5 4 4 4 4 4 5 5 4 4 4 5 6 7 7 7 8 9 10 10 11 12 12 13 15 16 16 17 17 17 15 13 12 11 10 9 7 6 5 5
5 5 5 5 4 4 4 4 4 4 4 4 4 3 4 4 5 6 7 8 8 9 10 10 10 11 12 13 15 16 16 17 17 16 14 12 11 10 9 8 7 6 5 4
5 6 5 4 4 4 4 4 4 4 4 3 3 3 3 4 5 6 7 8 8 9 9 9 9 10 11 12 14 16 16 17 17 15 13 11 11 10 8 7 6 5 4 3
6 6 6 5 5 5 5 4 4 3 3 2 3 3 3 4 5 6 6 7 8 8 8 8 8 9 10 12 14 16 16 16 16 14 12 11 11 10 8 6 4 3 3 2
4 5 6 6 5 5 4 3 2 1 1 2 3 3 3 4 5 6 7 7 7 7 6 6 7 8 10 11 13 15 15 15 15 14 12 11 10 9 7 5 3 2 2 2
3 3 5 6 5 4 3 3 2 1 1 2 2 3 4 5 6 6 7 7 6 6 6 6 7 8 9 11 13 15 15 14 14 14 12 11 10 8 6 4 3 2 2 2
2 3 5 6 6 5 4 3 2 2 1 1 2 3 4 4 5 6 7 6 6 6 7 7 7 8 9 11 13 14 15 14 14 14 12 11 9 7 5 3 2 2 2 2
3 3 4 5 6 5 4 3 3 2 2 1 1 2 3 4 5 6 6 6 6 7 8 8 8 8 9 10 12 14 15 14 14 14 13 11 9 6 4 3 2 2 2 2
4 4 4 5 5 5 4 3 3 2 2 1 1 2 3 4 5 5 6 6 6 7 8 9 8 7 8 10 12 14 15 14 14 14 13 11 9 6 4 3 2 2 2 2
4 4 3 4 5 5 4 3 3 3 2 2 2 2 4 5 5 5 6 6 7 7 8 9 8 7 7 9 11 13 14 14 14 14 13 11 9 6 4 4 3 3 2 2
5 4 3 3 4 5 4 4 3 3 3 2 2 2 3 4 5 5 5 6 6 7 7 8 7 6 6 8 11 13 14 14 14 14 13 11 9 7 5 5 4 3 3 3
5 4 3 3 4 4 4 3 3 3 3 2 2 2 3 4 5 6 6 6 6 6 6 6 6 6 6 8 10 12 13 13 13 13 12 10 8 7 6 5 4 4 4 3
5 4 4 4 4 4 4 4 3 3 3 2 2 2 3 3 4 5 6 6 6 5 5 5 5 6 6 8 10 12 13 13 13 12 11 9 9 8 7 6 5 4 3 3
5 4 4 4 4 4 4 4 4 4 3 3 3 3 2 2 3 5 5 6 6 5 5 5 5 6 7 8 10 12 12 12 12 12 10 9 9 8 7 6 5 4 3 3
4 4 4 4 3 3 4 5 5 5 4 4 3 3 2 2 3 4 5 5 6 5 5 5 6 7 8 9 11 12 12 12 11 10 10 9 9 8 7 6 5 4 4 3
3 3 3 3 3 3 4 5 5 5 4 4 3 3 2 2 2 3 4 5 5 5 5 5 7 7 8 10 11 12 12 11 11 9 8 8 8 8 7 6 6 5 5 4
4 3 2 2 2 3 4 5 5 4 4 4 3 3 2 2 2 3 4 5 5 5 5 6 7 8 9 11 12 12 12 11 10 8 7 7 8 7 7 7 6 6 5 5
4 4 3 2 2 4 5 5 4 4 4 4 3 2 2 2 2 3 3 4 5 5 6 6 7 9 10 11 11 11 11 11 10 9 8 7 7 7 7 7 6 6 6 6
3 3 3 3 3 5 6 6 5 4 4 3 2 2 2 2 2 3 3 4 5 5 5 6 7 9 10 11 11 11 11 11 11 10 9 8 7 7 7 7 7 7 7 7
3 3 3 3 4 5 6 6 5 4 3 2 2 2 2 2 3 3 3 4 5 5 6 6 7 9 11 11 11 11 11 11 11 11 10 9 8 7 7 7 7 7 8 8
3 3 3 4 4 5 5 5 4 3 3 2 2 2 2 2 3 3 3 4 5 5 6 7 8 9 11 11 12 12 12 11 11 11 11 10 9 8 7 7 8 8 8 8
3 3 3 4 5 5 5 5 4 3 2 2 1 2 2 2 3 3 3 4 5 6 7 8 9 10 10 11 12 13 13 12 12 11 11 11 10 10 9 9 9 9 9 9
3 3 4 5 5 5 5 5 4 3 3 2 2 2 2 2 3 3 3 4 5 6 7 8 9 10 11 11 13 13 13 13 12 12 12 11 11 11 10 10 10 10 10 10
3 3 4 5 5 5 5 5 4 3 3 2 2 2 2 3 3 3 3 4 5 6 8 9 10 10 11 12 13 13 14 13 13 12 12 12 11 11 11 11 11 10 10 10